Weather in Novomuslyumovo

Russia / Republic of Bashkortostan     55°56′24″N   58°28′13″E
temp.,
°C
wind,
m/s
gust,
m/s
humid.,
%
clouds,
%
prec.,
mm/h
press.,
hPa
HPBL,
m
27 february, sat
sat2723:00−21ese129321 0.0 102221
02:00−22ese2289100 0.0 102021
05:00−23ese228882 0.0 101827
08:00−21ese3587100 0.0 1015106
11:00−14se51084100 0.0 1013452
14:00−14se71194100 0.7 1011424
17:00−15se71392100 1.3 1010441
20:00−15se61193100 0.4 1009460
28 february, sun
sun2823:00−14ese41088100 0.5 1008317
02:00−15e499055 0.0 1006189
05:00−15e4108951 0.0 1005219
08:00−14e4109087 0.0 1004292
11:00−11e599089 0.0 1004428
14:00−8e598792 0.1 1004543
17:00−10e5108994 0.2 1005529
20:00−13e5119093 0.1 1007443
1 march, mon
mon123:00−14ene4109092 0.1 1010376
02:00−16ene499195 0.0 1011349
05:00−17ene489495 0.1 1013347
08:00−17ene4895100 0.3 1014337
11:00−16ene3692100 0.4 1016364
14:00−13ne2487100 0.2 1016484
17:00−12nne2390100 0.3 1016365
20:00−14nnw129699 0.1 101821
2 march, tue
tue223:00−18nw1110090 0.1 101820
02:00−19sw1110091 0.1 101820
05:00−20sw2210096 0.1 101725
08:00−21ssw3499100 0.1 101679
11:00−18s479494 0.1 1014281
14:00−14ssw479192 0.0 1011431
17:00−11ssw598796 0.0 1010562
20:00−12s41188100 0.0 1008406
3 march, wed
wed323:00−12ssw41295100 0.3 1008550
02:00−13ssw41095100 0.8 1006554
05:00−13s2896100 1.3 1005402
08:00−13sse2696100 0.4 1004226
11:00−9s3693100 0.6 1002390
14:00−6s3592100 0.4 1001514
17:00−4sse2593100 0.7 1000361
20:00−6se1297100 0.3 100022